星链-34838 (STARLINK-34838)

导读

STARLINK-34838是美国SpaceX公司于2025年8月27日发射的星链(Starlink)低轨互联网卫星,隶属于全球规模最大的卫星互联网星座。它延续了星链星座全球覆盖、高速低时延的特性,主要面向传统网络基础设施缺失区域提供宽带服务,可支持高清视频通话、在线游戏等需求,也进一步扩充了星链星座的服务容量,助力星链网络覆盖与服务能力持续升级。

基本信息
目录编号:
65343
目录名称:
STARLINK-34838
国际标识:
2025-189W
轨道中心:
EARTH
卫星名称:
星链-34838
卫星全名:
星链-34838 (STARLINK-34838)
卫星状态:
在轨 (已飞行290 天)
发射日期:
2025-08-27 UTC
国别 :
美国 (US)
星等 :
--
轨道信息
数据来源 国际轨道数据 AOE轨道数据
星历时间 2026-06-13T11:01:36+0800
14小时前
查看轨道信息
2026-06-08T23:00:00+0800
5天前
查看轨道信息
半长轴 6853.366km 6853.377km
偏心率 0.0001292 0.0001567
轨道倾角 53.158° 53.158°
近地点辐角 102.682° 108.577°
升交点赤经 123.791° 144.699°
平近点角 257.432° 282.434°
近地点 474.343km 474.166km
远地点 476.115km 476.314km
周期 94.106分钟 94.106分钟
每日圈数 15.301956 15.301918
详细信息
固有亮度:
5
最大亮度:
2.5
卫星平台:
Starlink V1.0
覆盖范围:
全球
运营商:
太空探索技术公司
运营商所在国:
美国
制造商(研发单位):
太空探索技术公司
制造商所在国:
美国
使用方式:
暂无
卫星简介
Starlink 计划是 SpaceX 推出的全球卫星互联网项目,通过发射低轨道卫星,为全球尤其是偏远地区提供高速、低延迟的互联网服务。自 2019 年起,Starlink 已部署数千颗卫星,旨在缩小全球数字鸿沟,推动互联网普及。该项目还为军事、航空等行业提供通信支持,带来广泛经济效益。
2D轨道图
3D轨道图
轨道高度分析图
轨道倾角分析图
轨道综合分析图
查看轨道综合分析图